Regional Weather Roundup
Issued by NWS

Home | Current Version | Previous Version | Text Only | Print | Product List | Glossary Off
Versions: 1 2 3 4 5 6 7 8 9 10 11 12 13 14 15 16 17 18 19 20 21 22 23 24 25 26 27

000
ASUS45 KBOU 251407
RWRCO

WEATHER ROUNDUP FOR COLORADO
NATIONAL WEATHER SERVICE DENVER/BOULDER CO
700 AM MST SAT FEB 25 2017

NOTE: "FAIR" INDICATES FEW OR NO CLOUDS BELOW 12000 FEET WITH NO
SIGNIFICANT WEATHER AND/OR OBSTRUCTIONS TO VISIBILITY.

COZ001>005-013-030-031-251500-
...NORTHWEST COLORADO...

CITY           SKY/WX    TMP DP  RH WIND       PRES   REMARKS
CRAIG          CLOUDY    12   8  84 NW3       30.02F
HAYDEN         CLOUDY    10   5  79 E5        29.99S WCI   2
MEEKER         MOCLDY     4  -1  80 E3        30.02S
MOUNT WERNER   NOT AVBL
STEAMBOAT SPGS CLOUDY     5   2  87 CALM      29.98S
WALDEN         NOT AVBL
$$

COZ006>008-011-251500-
...WEST CENTRAL VALLEYS...

CITY           SKY/WX    TMP DP  RH WIND       PRES   REMARKS
GRAND JUNCTION FAIR      17  13  84 SE8       30.08F WCI   7
MONTROSE       FAIR      11   6  81 S8        30.10S WCI  -1
EAGLE          CLOUDY     9   5  85 E5        30.04F WCI   0
RIFLE          CLOUDY    11   7  84 CALM      30.08S
DELTA          FAIR      16  10  77 CALM      30.11S
NUCLA          FAIR      14   5  67 SE8       30.11S WCI   3
$$

COZ017>023-064>068-251500-
...SOUTHWEST COLORADO...

CITY           SKY/WX    TMP DP  RH WIND       PRES   REMARKS
DURANGO        FAIR      12   4  70 N3        30.05R
CORTEZ         FAIR      11   7  84 E3        30.08S
PAGOSA SPRINGS FAIR       4   1  86 CALM      30.02S
TELLURIDE      CLOUDY     5  -1  76 SE6       29.97S WCI  -5
WOLF CREEK PAS FOG       -4  -6  92 SW15G25   29.86S VSB 1/4 WCI -25
$$

COZ009-010-012-014-032>034-037-058>063-251500-
...CENTRAL COLORADO...

CITY           SKY/WX    TMP DP  RH WIND       PRES   REMARKS
ASPEN          FAIR       2  -5  72 SW10      29.95F WCI -14
BUENA VISTA    FAIR      13  -6  43 NW8       29.92F WCI   1
COPPER MTN     FAIR      -4 -11  71 MISG      29.74F
BERTHOUD PASS  HAZE     -11 -20  64 NW23      29.67S VSB 1   WCI -38
COTTONWOOD PAS FAIR      10  -8  44 SW25G37   29.83S WCI -10
GUNNISON       FAIR      -2  -5  87 NE3       30.02S
KREMMLING      MOCLDY    12   5  73 CALM      29.97S
LEADVILLE      FAIR       0 -10  63 NW5       29.84S WCI -10
SALIDA         FAIR      16  -1  48 SW10      30.01F WCI   3
SUNLIGHT       NOT AVBL
WILKERSON PASS FAIR       0  -9  65 W18G32    29.73F WCI -22
$$

COZ069>075-251500-
...SAN LUIS VALLEY/SANGRE DE CRISTO MOUNTAINS...

CITY           SKY/WX    TMP DP  RH WIND       PRES   REMARKS
ALAMOSA        FAIR       8   3  80 CALM      29.98F
LA VETA PASS   FAIR       5  -4  66 SW16G30   29.83S WCI -14
SAGUACHE       NOT AVBL
$$

COZ035-036-038>040-251500-
...NORTHERN COLORADO FRONT RANGE...

CITY           SKY/WX    TMP DP  RH WIND       PRES   REMARKS
DENVER INTL AP FAIR      18   5  57 SW5       29.92F WCI  11
DMNS CITY PARK   N/A     18   6  58 S5        29.94S WCI  11
AURORA         PTCLDY    14   5  68 S8        29.93F WCI   2
FRONT RANGE AP PTCLDY    19   7  58 S6        29.93  WCI  11
ERIE MUNI ARPT FAIR      10   7  86 CALM      29.94S
BOULDER MUN AP FAIR      16  10  79 CALM      29.93S
CENTENNIAL     MOCLDY    12   0  58 SW6       29.92F WCI   3
BROOMFIELD     PTCLDY    19   1  45 CALM      29.92F
FORT COLLINS   FAIR       8   3  80 CALM      29.95F
LONGMONT       FAIR       9   5  84 N5        29.97R WCI   1
$$

COZ041-046-047-076>085-087-088-251500-
...PIKES PEAK/PALMER DIVIDE AND SOUTHERN FOOTHILLS...

CITY           SKY/WX    TMP DP  RH WIND       PRES   REMARKS
COLO. SPRINGS  FAIR       6   2  83 NE10      29.94S WCI  -9
A. F. ACADEMY  FAIR      19  -6  34 NE6G30    29.90R WCI  11
SCHRIEVER AFB  FOG        9   7  92 N3        29.94  VSB 7/8
ELLICOTT       CLOUDY   N/A N/A N/A N5          N/A
FALCON         FAIR      11   2  67 W7        29.91S WCI   1
FORT CARSON    FAIR      11   6  83 CALM      29.94S
LIMON          FAIR       5   2  87 N3        29.96S
MONUMENT HILL  FAIR       7  -4  61 SW9       29.90S WCI  -7
TRINIDAD       FAIR      17   7  64 W12       29.98F WCI   4
$$

COZ042>045-048>051-090-091-251500-
...NORTHEAST COLORADO...

CITY           SKY/WX    TMP DP  RH WIND       PRES   REMARKS
GREELEY ARPT   FAIR       9   7  92 W3        29.98F
AKRON          FAIR      13   8  81 W9        29.96S WCI   1
BURLINGTON     FAIR      17  13  84 SW10      30.01S WCI   5
WRAY           NOT AVBL
STERLING       FAIR       9   7  92 CALM      29.98S
HOLYOKE        FAIR      14  10  85 SW6       29.99S WCI   5
FORT MORGAN    FAIR      11   8  89 CALM      29.98S
$$

COZ086-089-092>099-251500-
...SOUTHEAST COLORADO...

CITY           SKY/WX    TMP DP  RH WIND       PRES   REMARKS
PUEBLO         FAIR      16  10  77 NW6       30.01S WCI   7
LA JUNTA       FAIR      14  10  84 W9        30.03S WCI   2
LAMAR          FAIR      15  10  80 S6        30.04F WCI   6
SPRINGFIELD      N/A     16  12  84 S9        30.04F WCI   4
$$




USA.gov is the U.S. government's official web portal to all federal, state and local government web resources and services.